GFSSW_sfc_rhum_132.txt.gz
RH
80 79 81 82 81 80 78 76 78 78 78 78 78 79 79 81 82 38 12 18 25 42 54 17 17 21 24 32 36 41 61 74 61 67 56 42 41 40 36 39 32 36 29 33 40
81 83 83 82 83 81 81 81 81 77 77 78 78 79 79 80 37 16 22 30 45 51 20 16 18 22 27 31 27 36 51 54 50 61 54 52 42 48 40 39 43 42 36 38 39
84 84 85 85 84 83 82 80 81 82 78 79 80 80 82 70 28 15 49 44 47 45 12 12 15 24 30 27 32 39 54 47 50 50 64 48 43 36 37 40 35 44 42 38 38
85 86 86 85 84 84 83 82 83 81 83 78 79 81 83 42 16 16 59 53 54 18 10 13 16 30 31 32 31 48 46 45 57 49 54 50 44 44 37 40 34 33 33 34 37
85 86 86 86 86 86 85 85 84 83 82 82 78 80 51 22 16 21 63 53 18 11 10 13 19 27 31 26 27 36 48 51 50 49 64 56 56 46 50 38 32 32 33 35 36
85 85 86 86 86 86 86 86 84 83 82 80 79 84 35 18 22 28 23 19 10 9 9 15 21 22 23 29 30 37 43 50 50 54 56 76 69 62 69 37 37 35 35 33 35
85 85 85 85 85 85 85 87 87 84 82 79 79 52 23 22 21 17 16 11 8 7 8 11 16 20 18 35 33 36 49 50 53 54 64 75 86 77 78 46 38 36 36 36 37
85 85 85 85 84 85 86 87 88 84 82 78 79 41 16 16 18 16 13 12 8 7 7 10 12 17 22 35 42 44 42 50 56 56 58 63 89 79 79 65 40 36 36 37 38
84 85 85 84 83 84 86 88 84 82 78 77 47 30 19 32 17 15 15 15 11 9 8 8 11 18 29 33 35 38 35 44 63 55 59 60 63 76 75 78 60 36 35 36 38
88 85 85 84 84 85 89 87 84 80 61 44 36 26 16 16 15 17 15 10 10 8 7 11 17 20 22 25 26 29 31 39 54 59 58 61 65 61 83 78 76 43 33 35 34
89 85 85 84 84 86 68 36 30 29 29 19 16 16 14 14 12 15 12 6 6 7 8 12 16 19 18 23 21 24 28 40 44 56 54 53 56 61 67 78 82 60 39 32 33
85 85 85 84 85 90 53 16 19 19 19 17 18 18 16 15 14 14 10 12 7 8 9 14 14 14 18 24 23 23 32 40 46 50 52 52 53 62 67 74 81 70 47 33 30
85 89 85 86 88 67 22 18 16 17 17 16 15 14 13 14 13 14 13 12 10 11 9 10 11 17 18 20 22 23 26 34 37 47 48 55 57 68 68 66 81 55 42 32 30
86 89 86 88 62 21 16 18 17 19 17 17 14 14 14 11 13 10 11 12 12 12 11 10 13 17 18 18 19 20 23 35 40 39 43 44 43 61 66 70 78 42 43 32 30
87 88 90 88 32 15 17 16 16 18 22 15 13 11 11 12 11 12 10 11 12 12 12 13 15 18 18 17 16 22 25 32 33 35 35 36 46 54 60 60 60 52 41 34 30
88 88 87 56 33 16 18 16 18 21 25 17 12 13 13 13 11 11 12 10 10 11 11 12 10 12 13 14 15 22 28 34 34 30 36 31 37 42 49 48 40 45 40 36 28
90 90 81 35 16 19 16 18 20 16 14 17 16 14 14 14 12 12 13 13 12 15 15 11 11 9 12 14 16 21 21 28 32 34 34 37 42 36 36 33 34 36 41 40 32
90 93 74 34 22 22 18 19 22 15 14 12 14 15 16 14 14 13 12 12 12 13 12 12 14 11 12 13 17 20 17 20 44 49 45 42 49 36 30 32 29 29 29 44 36
93 34 27 22 27 26 19 18 17 15 14 13 15 17 17 16 16 13 13 14 14 14 18 12 15 12 16 12 16 17 22 15 26 29 30 28 34 33 26 37 36 32 32 39 40
35 21 19 24 26 20 19 27 16 14 13 12 17 16 19 17 17 15 14 14 15 15 13 15 21 20 24 24 19 22 16 24 21 49 50 28 32 34 42 48 44 39 39 38 46
30 17 24 21 22 20 19 15 15 13 14 13 14 16 17 19 18 16 17 17 16 15 15 14 16 25 27 30 25 26 23 22 20 29 61 43 49 39 55 53 47 40 36 44 43
20 16 23 20 21 18 16 16 37 12 11 11 12 14 16 17 19 19 18 19 15 13 16 14 13 20 20 18 20 25 28 22 29 48 31 73 30 42 51 50 45 38 39 38 59
24 18 21 19 20 18 18 14 15 13 11 10 11 11 15 16 22 18 19 17 16 15 19 15 16 21 20 19 21 21 22 22 18 72 68 29 32 40 49 55 52 48 41 42 48
30 20 21 22 19 19 18 17 16 14 12 9 11 13 17 17 17 21 18 17 17 18 44 30 15 21 24 25 23 24 26 24 19 20 20 20 25 35 51 64 66 61 52 44 45
23 18 33 21 20 18 19 19 17 14 13 12 17 13 14 18 17 18 16 17 16 33 22 17 25 23 24 25 22 23 25 24 24 26 26 35 34 49 66 74 80 77 67 52 60
36 33 30 31 35 27 34 22 18 15 12 13 16 12 14 17 16 18 17 17 17 17 18 16 27 27 30 27 27 22 25 28 28 28 30 35 42 58 67 73 86 86 81 54 58
36 38 41 38 28 26 22 20 18 18 12 10 12 14 15 14 15 15 14 17 17 21 20 21 22 28 29 28 26 31 28 29 32 35 31 30 51 59 69 79 92 92 92 96 92

GFSSW_sfc_rhum_138.txt.gz
RH
82 83 83 83 83 83 82 82 81 81 81 80 80 80 81 82 84 40 16 20 22 41 38 17 15 17 20 26 31 82 76 93 89 71 62 47 40 30 33 22 27 35 31 30 26
83 83 83 84 84 84 84 82 82 81 81 80 81 80 80 83 44 20 31 46 37 42 12 17 16 17 23 24 30 78 93 60 50 60 65 65 79 62 29 27 30 32 30 25 26
83 83 83 83 82 83 83 84 84 83 81 82 81 81 80 72 38 16 50 45 47 40 13 14 11 14 24 23 27 45 82 60 46 49 63 83 64 38 37 39 27 35 29 28 28
82 83 85 85 85 85 85 85 85 86 83 81 82 82 80 46 23 21 59 55 53 19 15 11 12 13 22 30 38 56 35 41 48 42 38 60 68 44 41 55 46 26 26 28 30
83 84 85 85 85 84 84 85 85 84 84 84 81 80 57 36 17 33 62 46 15 16 15 10 11 14 25 30 29 33 37 38 40 36 46 72 69 44 39 31 26 25 27 28 36
83 84 85 85 85 84 84 83 84 85 84 82 80 81 44 28 12 21 11 11 10 12 9 8 10 12 22 24 32 54 58 36 42 45 40 60 56 42 43 38 26 26 27 30 34
82 84 84 85 85 84 84 86 86 86 86 83 79 51 39 16 10 11 9 8 8 7 7 8 9 15 15 18 31 54 48 41 41 45 48 47 66 68 54 48 45 25 27 31 42
84 84 84 84 84 84 86 87 87 86 84 81 78 45 18 11 11 9 8 7 5 5 6 6 10 14 15 21 26 24 30 51 43 50 46 45 68 84 66 58 50 33 41 46 36
84 84 84 84 83 88 89 87 85 84 77 73 57 35 17 21 10 9 8 7 6 4 6 6 8 14 13 44 35 21 31 55 67 51 47 47 66 64 64 58 53 48 45 57 56
84 84 84 84 86 89 88 90 69 80 66 38 30 24 13 12 10 9 9 8 5 5 6 6 9 15 15 16 29 43 32 35 72 48 47 55 57 59 59 56 55 49 52 60 74
84 84 84 85 89 90 66 32 33 29 28 16 13 10 9 9 9 10 8 6 7 6 7 6 10 14 14 14 20 29 28 39 51 44 45 49 54 58 52 65 60 55 44 50 47
84 87 88 90 90 91 66 27 13 12 16 9 9 8 9 8 10 9 6 6 7 8 6 7 10 9 10 11 16 21 24 29 36 32 35 39 53 54 55 54 45 53 63 56 49
88 89 90 88 90 64 21 14 10 10 16 11 9 9 9 10 10 10 7 8 6 7 6 7 7 7 9 12 20 19 22 31 38 29 28 31 45 60 53 50 45 44 56 56 58
87 89 91 94 60 16 13 10 9 10 20 14 11 9 9 9 9 7 8 9 8 8 6 7 6 6 9 11 15 16 18 24 33 28 30 31 50 59 57 60 51 49 51 48 47
89 89 91 94 41 16 11 9 9 11 31 12 10 8 8 10 9 8 7 9 11 8 7 8 6 10 13 14 12 14 16 18 24 30 21 22 32 45 55 66 63 52 45 43 37
88 89 91 46 39 15 10 9 11 20 27 13 9 11 10 9 7 8 8 9 8 8 8 9 8 8 10 10 10 10 18 21 28 26 27 19 23 62 78 75 53 51 49 44 34
88 88 82 33 16 10 10 12 19 23 11 11 11 10 10 11 9 9 10 11 10 13 12 9 8 8 8 11 10 11 13 21 26 23 31 33 32 64 41 54 40 46 53 42 36
86 88 60 21 9 10 12 17 29 17 10 9 9 10 12 10 10 9 10 11 9 9 10 11 12 8 7 10 12 12 12 17 40 51 72 41 60 43 34 34 34 36 41 38 33
88 21 18 15 15 12 17 22 22 16 8 8 10 12 13 10 12 11 10 10 10 9 14 15 11 7 6 6 8 11 15 10 15 19 36 51 51 48 31 25 24 36 39 37 35
48 20 13 8 9 13 19 28 16 10 8 8 12 13 16 14 12 11 10 9 10 10 9 13 19 13 7 8 7 9 10 18 13 31 45 66 73 79 72 88 28 40 53 42 38
40 17 9 8 10 17 22 16 12 8 8 9 10 11 11 14 12 14 11 10 10 11 9 10 12 16 13 18 15 15 14 31 26 38 40 68 83 81 83 74 45 30 41 34 33
24 21 11 10 19 18 17 14 21 9 8 9 9 10 12 12 12 13 12 14 11 10 13 12 14 22 25 27 18 18 21 33 35 91 72 49 92 83 81 76 30 30 32 39 32
32 15 12 12 19 17 14 12 11 10 9 9 10 8 9 12 16 16 13 12 12 11 19 15 16 18 25 52 32 21 20 28 26 27 54 73 68 50 66 79 44 34 36 44 44
34 18 13 16 15 14 16 14 13 9 8 8 9 8 10 11 12 17 14 11 11 11 44 28 15 17 19 33 54 34 36 30 31 33 27 26 71 57 76 80 61 50 50 47 49
32 19 13 17 18 16 14 15 15 13 9 9 12 9 11 15 13 14 12 11 13 37 17 13 19 16 14 19 28 22 21 28 34 40 41 45 58 52 48 72 67 60 59 49 55
38 33 28 28 23 22 19 17 16 14 12 12 12 10 10 14 14 15 13 13 14 16 17 12 21 18 18 16 18 26 19 23 34 64 59 40 52 55 58 64 66 66 75 67 58
33 35 36 36 21 20 20 15 14 14 13 11 11 11 12 11 10 9 9 10 10 15 18 18 20 25 28 20 22 29 30 33 38 49 37 46 54 84 80 64 67 64 73 80 83

GFSSW_sfc_rhum_141.txt.gz
RH
84 84 84 85 84 84 84 84 83 84 83 83 83 84 84 86 86 58 29 25 30 53 47 15 20 18 21 28 73 83 94 92 90 87 81 76 64 42 34 34 33 32 37 35 46
80 83 83 85 84 84 83 85 85 85 84 83 84 83 84 86 66 35 34 46 49 51 12 16 22 20 27 33 73 84 90 70 64 66 78 77 75 72 42 36 39 38 33 30 34
84 82 84 85 86 86 85 85 86 85 87 84 83 83 85 83 60 27 55 47 49 43 12 12 16 20 20 33 66 82 75 61 56 67 71 79 73 65 58 52 42 45 34 33 35
84 83 85 86 85 85 84 82 84 85 84 84 83 83 84 70 40 22 60 58 52 20 14 18 18 20 20 31 38 62 53 56 56 61 75 89 88 88 55 54 42 42 31 36 41
83 84 85 85 86 86 86 86 86 86 85 84 82 82 80 63 38 34 63 55 24 17 22 21 17 15 17 26 62 75 58 52 49 53 78 72 77 55 53 38 32 30 32 45 55
82 83 84 85 85 86 87 88 87 87 85 84 82 81 77 48 25 29 20 19 13 16 17 17 13 12 16 34 64 58 64 57 45 62 64 64 71 57 56 48 36 31 38 52 53
83 84 85 85 84 85 86 88 86 86 86 86 80 64 52 39 14 17 12 12 13 14 16 10 9 15 19 25 43 46 58 62 53 61 67 63 68 69 64 49 40 33 39 40 52
85 85 85 85 84 85 89 90 87 85 85 81 76 64 61 14 16 12 12 11 9 9 9 8 10 16 20 31 40 50 58 70 82 64 59 64 76 72 66 60 54 48 39 51 54
85 85 85 84 84 89 91 90 85 82 82 75 82 70 40 25 13 13 10 9 8 7 7 6 9 15 15 28 38 35 53 69 72 67 62 63 81 67 66 64 59 56 57 48 53
85 86 88 88 90 92 91 90 73 79 74 51 41 48 29 16 13 12 13 11 8 8 7 9 12 18 23 32 54 46 45 55 67 69 72 64 69 69 64 67 61 58 63 57 64
87 90 91 91 91 92 82 45 54 52 42 34 31 25 11 12 10 12 11 10 10 10 12 10 16 23 20 20 26 28 40 49 62 57 72 64 66 70 65 70 66 66 66 65 60
89 90 90 91 92 92 91 40 25 17 24 23 21 11 11 11 13 11 9 11 11 14 10 12 14 12 11 13 18 27 35 55 73 72 77 58 63 73 65 64 60 67 64 61 61
90 90 91 91 91 87 40 26 17 14 26 18 11 11 12 13 12 11 8 8 10 12 10 11 10 7 8 12 15 26 32 51 56 46 36 49 65 75 64 63 61 58 58 60 64
89 90 90 95 65 32 26 19 16 13 34 22 14 10 11 12 13 8 8 10 12 11 9 10 7 7 9 12 15 32 22 31 38 44 56 40 78 80 76 72 64 52 59 57 57
88 89 91 91 69 29 18 12 12 18 49 15 13 9 11 14 12 10 9 12 15 13 14 11 9 9 15 12 16 25 19 27 27 38 42 36 61 74 82 82 69 58 52 49 49
88 89 90 68 69 36 16 14 15 34 40 15 12 13 13 12 10 10 10 11 12 12 13 11 10 12 15 11 12 13 23 29 33 41 59 52 56 90 87 74 66 57 49 47 50
89 87 89 48 32 18 14 21 37 38 17 15 14 13 14 14 10 11 13 15 18 22 19 12 12 11 10 15 13 15 23 42 62 61 62 57 52 77 65 59 59 58 53 46 46
89 89 77 48 25 15 21 33 45 24 21 11 11 12 14 13 12 11 14 17 14 14 16 20 19 12 10 14 20 19 22 34 59 59 62 46 70 67 64 60 54 46 51 47 48
89 44 43 34 36 28 36 41 35 24 13 10 12 15 16 13 17 15 14 14 12 17 24 25 16 9 8 10 14 16 28 18 23 34 59 72 70 48 56 58 62 67 59 59 50
77 48 29 18 17 21 38 43 26 17 15 10 15 15 25 18 16 18 16 12 13 12 21 21 25 20 9 9 10 15 14 26 48 63 62 81 86 82 76 78 76 77 77 60 46
64 44 18 11 12 28 38 31 19 13 12 16 13 15 15 20 19 19 19 13 11 12 14 30 33 24 17 34 36 34 26 49 64 82 83 90 86 75 83 82 91 89 84 79 44
47 42 15 12 32 34 30 24 27 15 12 14 13 14 16 16 20 20 22 17 13 14 22 25 27 40 43 33 29 33 39 45 58 84 87 90 87 76 78 78 85 90 88 80 82
63 42 21 14 30 27 24 20 16 15 14 12 13 12 12 17 27 20 19 14 13 17 31 25 36 43 52 44 37 38 34 36 42 70 86 82 81 64 68 79 80 88 93 83 92
61 48 29 25 25 24 25 21 19 13 13 11 13 12 16 22 18 26 22 14 13 18 42 32 27 34 37 49 50 45 34 38 48 60 72 74 77 67 68 71 80 83 79 79 74
60 43 39 45 39 35 27 22 20 19 14 13 20 16 20 25 22 21 18 17 16 41 22 22 31 32 24 30 34 32 28 28 44 60 64 72 54 61 76 69 80 77 80 77 78
60 57 50 52 39 32 32 31 20 17 18 19 20 14 15 25 24 27 25 28 30 22 25 24 31 35 33 21 32 33 36 33 36 42 58 60 66 61 62 63 79 76 85 88 92
51 51 59 58 43 35 31 25 20 17 16 20 17 16 18 16 13 17 15 15 21 30 32 32 40 42 44 31 31 44 40 38 38 48 44 62 67 70 80 77 82 80 83 88 92

GFSSW_sfc_rhum_147.txt.gz
RH
82 83 84 84 84 84 84 84 81 81 82 81 82 84 86 88 88 80 23 21 32 52 49 16 23 24 55 78 68 74 90 96 88 90 82 69 67 48 42 46 44 47 61 66 67
83 83 84 84 84 84 84 84 84 83 81 80 80 83 85 88 86 52 37 50 58 53 16 16 25 25 56 74 80 81 91 76 70 76 81 69 74 68 54 47 54 62 64 66 70
83 83 83 83 84 84 84 84 84 84 84 84 84 83 86 91 74 31 53 59 60 45 14 14 16 21 42 86 79 80 81 63 65 67 73 72 69 76 54 53 59 74 72 67 74
83 83 83 83 85 85 84 84 84 84 84 84 83 85 87 91 40 28 64 62 60 26 16 17 24 26 43 86 74 79 70 68 68 69 70 75 82 80 66 50 51 60 61 68 77
84 83 83 82 85 85 84 84 84 85 84 82 83 85 89 62 43 51 68 63 38 19 18 22 27 25 55 66 63 64 66 63 64 67 72 74 79 73 62 45 53 56 64 71 71
83 82 83 84 84 83 83 83 86 86 85 84 84 83 84 47 32 52 45 34 20 20 23 28 25 20 22 47 54 55 70 66 63 68 69 72 77 78 60 45 54 58 65 65 66
85 85 87 85 86 87 89 87 87 87 87 86 84 74 70 31 30 41 26 22 21 18 20 21 22 21 19 60 51 67 78 71 70 71 70 74 85 82 69 51 53 58 57 61 60
89 88 88 87 86 85 88 90 89 87 85 85 82 82 54 34 32 29 23 18 15 19 21 19 18 16 48 53 54 57 74 83 74 68 66 71 76 76 73 60 52 51 54 58 61
91 90 90 89 88 89 92 92 88 84 82 78 88 80 35 34 21 22 16 17 16 16 15 11 12 18 41 59 75 78 75 77 76 72 69 77 78 64 74 60 62 60 53 62 61
91 92 92 92 93 93 92 87 81 85 83 67 56 51 31 26 16 15 19 16 14 13 10 11 18 21 27 39 60 62 73 67 75 74 68 82 82 70 66 65 59 58 61 70 64
90 91 92 91 91 91 93 71 43 42 72 27 28 24 22 24 14 16 15 14 13 11 13 14 15 18 19 23 29 44 57 64 67 68 73 80 75 74 67 71 69 64 68 70 69
90 91 92 91 91 93 94 32 37 32 38 33 29 31 27 19 18 16 13 15 17 19 16 16 16 11 13 18 20 25 54 64 63 67 80 81 79 74 75 64 67 66 66 64 68
90 91 92 91 91 79 52 36 32 40 43 25 28 27 26 21 17 17 13 14 16 18 17 16 11 10 11 12 15 19 57 69 56 67 69 74 82 87 83 75 67 66 60 58 61
90 90 92 95 55 61 31 35 29 28 40 29 28 20 16 17 19 13 12 10 16 13 15 16 13 10 12 12 14 24 45 48 40 63 80 67 76 78 90 82 76 63 72 66 69
89 89 92 93 85 50 21 44 30 26 49 25 21 15 18 19 18 15 11 13 16 18 20 21 13 12 12 11 15 21 40 38 44 60 57 53 72 67 91 96 90 68 62 68 63
89 88 88 89 95 66 53 43 26 36 46 27 16 17 19 20 16 15 15 16 16 20 22 19 14 13 14 16 17 28 33 36 51 58 59 50 69 78 96 90 86 77 69 65 66
89 88 91 70 44 49 42 31 38 46 25 26 20 19 21 20 18 16 17 18 21 29 24 17 15 15 13 18 17 22 30 49 64 65 60 69 66 91 81 79 83 85 71 65 64
88 92 92 80 80 51 36 33 57 31 31 25 20 22 20 19 17 16 20 20 20 20 25 24 23 16 14 16 19 24 26 37 47 72 60 57 64 91 73 77 82 79 84 76 72
91 86 86 73 70 48 36 46 35 33 25 24 20 24 28 20 16 18 20 21 17 19 22 30 25 14 14 16 15 22 26 27 43 62 53 69 76 79 70 78 80 77 85 90 85
96 95 72 56 56 38 38 49 40 29 22 24 27 22 23 22 18 19 20 16 16 16 20 22 28 29 24 19 28 28 21 30 56 61 69 78 82 74 72 83 84 85 86 89 90
84 63 36 52 32 33 42 39 36 26 23 28 33 30 20 25 22 22 21 18 16 17 18 27 36 31 36 44 42 35 50 75 76 74 80 80 77 78 76 84 86 84 78 84 87
83 48 34 30 28 46 38 36 39 30 26 26 28 26 21 17 26 27 24 19 16 20 25 41 46 56 48 43 40 44 51 59 54 74 89 85 74 82 84 87 84 81 79 87 88
91 90 56 28 41 48 39 30 25 30 30 27 25 28 23 22 24 26 27 20 19 22 25 28 48 58 41 31 35 42 45 59 74 81 84 75 69 83 89 83 79 83 89 89 88
85 72 68 65 65 69 63 46 34 25 26 22 22 25 27 21 20 20 26 20 21 22 59 39 42 39 39 33 41 50 42 53 59 69 81 75 70 87 89 87 75 79 89 90 90
91 81 84 87 73 78 76 50 37 33 28 26 26 24 33 24 23 22 22 27 22 61 27 24 31 42 35 29 43 39 39 44 50 55 59 58 72 65 79 91 75 79 81 84 84
93 91 88 86 84 70 70 49 44 46 36 34 34 29 30 22 19 24 22 32 26 33 32 35 34 36 45 34 39 41 36 39 46 58 67 69 70 66 82 80 80 82 91 87 88
94 89 90 83 84 76 67 65 55 50 42 30 31 32 31 25 18 19 20 23 25 27 36 39 42 44 53 38 41 45 42 45 50 55 61 75 65 74 81 81 90 92 96 97 97